Regional Weather Roundup
Issued by NWS

Home | Current Version | Previous Version | Text Only | Print | Product List | Glossary On
Versions: 1 2 3 4 5 6 7 8 9 10 11 12 13 14 15 16 17 18 19 20 21 22 23 24 25 26 27 28 29 30 31 32 33 34 35 36 37 38 39 40 41 42 43 44 45 46 47 48 49 50
000
ASUS43 KDTX 230710
RWRMI
MICHIGAN HOURLY REGIONAL WEATHER ROUNDUP
NATIONAL WEATHER SERVICE DETROIT/PONTIAC MI
ISSUED BY NATIONAL WEATHER SERVICE GRAND RAPIDS MI
300 AM EDT WED AUG 23 2017

NOTE: "FAIR" INDICATES FEW OR NO CLOUDS BELOW 12,000 FEET WITH NO
SIGNIFICANT WEATHER AND/OR OBSTRUCTION TO VISIBILITY.

MIZ047>049-052>055-059>063-066>070-074>076-081>083-230800-
SOUTHEAST LOWER MICHIGAN

CITY           SKY/WX    TMP DP  RH WIND       PRES   REMARKS
ADRIAN         CLEAR     56  52  86 W5        29.96S
ALMA           CLEAR     57  53  87 W8        29.92S
ANN ARBOR      CLEAR     57  53  86 W8        29.93S
BAD AXE        CLEAR     51  49  93 S3        29.88S
DETROIT CITY   CLEAR     62  53  72 W5        29.91S
DETROIT        PTCLDY    60  53  77 W6        29.93S
FLINT          PTCLDY    56  52  86 SW6       29.91F
GROSSE ILE     PTCLDY    61  54  77 W6        29.92S
HILLSDALE      CLEAR     55  52  88 CALM      29.96S
HOWELL         CLEAR     57  52  84 W5        29.93S

CITY           SKY/WX    TMP DP  RH WIND       PRES   REMARKS
JACKSON        CLEAR     56  52  86 SW3       29.94F
LANSING        CLEAR     59  52  77 W6        29.94S
MASON          CLEAR     60  53  77 W3        29.94S
MONROE         CLEAR     55  53  93 CALM      29.93S
MT. CLEMENS    CLEAR     60  53  77 W7        29.89S
PONTIAC        CLEAR     60  54  80 W6        29.90F
PORT HOPE        N/A     58  53  84 SW5       29.84F
PORT HURON     CLEAR     52  50  93 CALM      29.89F
TRI CITIES     CLEAR     57  54  89 W7        29.90F
YPSILANTI      CLEAR     58  53  84 W5        29.93S
$$
MIZ043>046-050>051-056>058-064>065-071>073-077>080-230800-
SOUTHWEST LOWER MICHIGAN

CITY           SKY/WX    TMP DP  RH WIND       PRES   REMARKS
BATTLE CREEK   MOCLDY    59  55  87 SW7       29.96F
BENTON HARBOR  CLEAR     70  52  52 NW9G18    29.97F
BIG RAPIDS     CLEAR     57  50  78 W7        29.91S
COLDWATER      CLEAR     55  55 100 SW5       29.96F
HOLLAND        CLEAR     67  55  65 NW6       29.95S
GRAND RAPIDS   MOCLDY    61  55  81 W7        29.94S
KALAMAZOO      MOCLDY    59  52  77 SW7       29.96F
MARSHALL       PTCLDY    56  55  96 CALM      29.95S
MOUNT PLEASANT CLEAR     60  52  76 W6        29.89F
MUSKEGON       CLEAR     68  50  52 NW14G23   29.94S
STURGIS        CLEAR     55  54  96 S3        29.97S
$$
MIZ016>042-230800-
NORTHERN LOWER MICHIGAN

CITY           SKY/WX    TMP DP  RH WIND       PRES   REMARKS
ALPENA         MOCLDY    57  53  86 SW6       29.83R
BEAVER ISLAND  PTCLDY    61  54  77 NW10G17   29.84S
BELLAIRE       MOCLDY    63  52  67 NW6       29.85S
CADILLAC       CLEAR     56  50  81 W6        29.90R
CHARLEVOIX     PTCLDY    63  53  69 W17G23    29.87S
GAYLORD        CLEAR     56  49  77 W7        29.85F
HOUGHTON LAKE  CLEAR     60  53  77 W14       29.88S
MANISTEE       PTCLDY    65  54  67 W13       29.89F
OSCODA         CLEAR     55  50  82 SW7       29.84S
PELLSTON       PTCLDY    60  52  74 W8        29.82S
TRAVERSE CITY  CLEAR     61  53  75 W9        29.86S
LUDINGTON      CLEAR     64  52  64 NW10G17   29.90F
$$
MIZ007>008-015-230800-
EASTERN UPPER MICHIGAN

CITY           SKY/WX    TMP DP  RH WIND       PRES   REMARKS
KINROSS        CLEAR     52  51  97 W8        29.79S
MACKINAC ISLAN PTCLDY    60  54  81 W15G25    29.81R
NEWBERRY       PTCLDY    53  52  97 W7        29.81S
S. S. MARIE    MOCLDY    60  53  77 W10       29.76S
$$
MIZ004>006-011>014-085-230800-
CENTRAL UPPER MICHIGAN

CITY           SKY/WX    TMP DP  RH WIND       PRES   REMARKS
MANISTIQUE     CLEAR     54  48  82 NW7       29.84R
ESCANABA       CLEAR     55  52  89 W7        29.87S
MENOMINEE      CLEAR     56  52  86 VRB3      29.91S
SAWYER-GWINN   CLEAR     53  50  89 NW8       29.88S
$$
MIZ001>003-009>011-084-230800-
WESTERN UPPER MICHIGAN

CITY           SKY/WX    TMP DP  RH WIND       PRES   REMARKS
IRON MOUNTAIN  CLEAR     55  50  83 W9        29.90R
HOUGHTON       MOCLDY    56  50  80 NW10      29.89R
COPPER HARBOR    N/A     58  52  80 N20G28    29.86S
IRONWOOD       PTCLDY    55  54  96 W7        29.97S
$$

ABBREVIATIONS USED IN REMARKS
   TC - TEMPERATURE IN CELSIUS
  WCI - WIND CHILL INDEX
   HX - HEAT INDEX
  VSB - VISIBILITY





USA.gov is the U.S. government's official web portal to all federal, state and local government web resources and services.